Location: Alice Springs
(23.6980°S, 133.8807°E)
Time: 13:28:42
(UTC+09:30)

Hubble Space Telescope - Visible Passes

Search period start: 17 June 2021 00:00
Search period end: 27 June 2021 00:00
Orbit: 535 x 539 km, 28.5° (Epoch: 16 June)

Date Brightness Start Highest point End Pass type
(mag) Time Alt. Az. Time Alt. Az. Time Alt. Az.
17 Jun 2.4 05:14:02 29° SE 05:14:02 29° SE 05:16:27 10° ESE visible
17 Jun 1.1 06:49:52 10° WSW 06:53:58 54° S 06:58:02 10° E visible
18 Jun 2.8 05:03:45 23° ESE 05:03:45 23° ESE 05:05:34 10° ESE visible
18 Jun 1.0 06:39:03 11° WSW 06:43:03 63° SSE 06:47:11 10° E visible
19 Jun 3.3 04:53:26 18° ESE 04:53:26 18° ESE 04:54:43 10° ESE visible
19 Jun 0.8 06:28:45 15° WSW 06:32:10 74° SSE 06:36:18 10° E visible
20 Jun 3.7 04:43:08 14° ESE 04:43:08 14° ESE 04:43:52 10° ESE visible
20 Jun 0.7 06:18:26 20° WSW 06:21:13 88° SSE 06:25:23 10° ENE visible
21 Jun 4.0 04:32:50 11° E 04:32:50 11° E 04:33:01 10° E visible
21 Jun 0.8 06:08:08 27° W 06:10:17 75° NNW 06:14:26 10° ENE visible
22 Jun 1.0 05:57:51 36° W 05:59:20 60° NNW 06:03:25 10° ENE visible
23 Jun 1.3 05:47:35 41° NW 05:48:21 46° NNW 05:52:20 10° NE visible
24 Jun 1.7 05:37:21 36° NNW 05:37:23 36° NNW 05:41:11 10° NE visible
25 Jun 2.3 05:27:07 26° N 05:27:07 26° N 05:29:56 10° NNE visible
26 Jun 3.0 05:16:55 17° N 05:16:55 17° N 05:18:33 10° NNE visible
